CST,Max TemperatureF,Mean TemperatureF,Min TemperatureF,Max Dew PointF,MeanDew PointF,Min DewpointF,Max Humidity, Mean Humidity, Min Humidity, Max Sea Level PressureIn, Mean Sea Level PressureIn, Min Sea Level PressureIn, Max VisibilityMiles, Mean VisibilityMiles, Min VisibilityMiles, Max Wind SpeedMPH, Mean Wind SpeedMPH, Max Gust SpeedMPH,PrecipitationIn, CloudCover, Events, WindDirDegrees
2013-2-1,15,2,-11,10,-4,-18,80,72,64,30.43,30.23,30.05,10,7,1,16,8,22,0.05,5,Snow,202
2013-2-2,19,15,11,14,9,4,88,78,67,30.19,30.09,29.95,10,8,2,20,8,23,0.01,8,Snow,269
2013-2-3,23,17,11,17,11,4,92,77,61,30.16,30.03,29.88,10,8,2,28,11,36,T,6,Snow,274
2013-2-4,24,16,8,18,12,6,88,75,62,30.04,29.95,29.81,10,9,2,20,8,25,0.00,5,,42
2013-2-5,37,27,16,27,21,13,85,78,70,30.14,29.92,29.79,10,8,2,26,11,33,T,5,Snow,282
2013-2-6,38,23,8,31,21,5,92,82,72,30.18,30.08,29.98,10,7,1,20,7,24,T,5,,158
2013-2-7,36,32,27,34,30,23,100,91,82,30.19,30.00,29.91,10,4,1,22,11,25,0.16,8,Rain,5
2013-2-8,30,28,26,24,22,21,84,77,69,30.39,30.32,30.20,10,10,7,18,8,22,0.00,8,,51
2013-2-9,31,29,27,27,25,23,92,85,78,30.31,30.12,29.92,10,8,5,23,15,28,0.00,8,,150
2013-2-10,42,36,30,41,33,27,100,90,79,29.92,29.50,29.27,10,5,1,31,16,40,0.47,8,Rain-Snow,159
2013-2-11,32,28,23,27,21,17,85,77,69,30.12,29.81,29.45,10,7,1,32,19,44,0.02,8,Snow,282
2013-2-12,39,31,22,28,23,16,92,76,59,30.14,30.01,29.86,10,10,6,18,7,23,0.00,3,,232
2013-2-13,43,33,23,33,28,21,92,81,70,29.86,29.76,29.64,10,10,8,14,7,18,0.00,3,,252
2013-2-14,39,31,22,31,26,11,92,78,64,30.15,29.90,29.63,10,8,1,25,14,33,0.01,6,Snow,304
2013-2-15,26,20,14,13,10,6,74,65,55,30.32,30.28,30.18,10,10,10,21,13,25,0.00,1,,318
2013-2-16,27,19,11,14,11,6,88,73,57,30.31,30.21,30.12,10,9,2,16,5,18,T,4,Snow,297
2013-2-17,36,26,16,23,18,11,80,68,56,30.16,29.99,29.72,10,10,10,24,14,33,0.00,1,,145
2013-2-18,42,26,10,31,21,1,89,77,64,29.85,29.66,29.56,10,9,2,32,15,41,T,5,Snow,296
2013-2-19,16,9,1,3,-1,-7,80,67,53,30.39,30.06,29.82,10,8,2,31,21,39,T,5,Snow,304
2013-2-20,24,12,-1,10,2,-8,80,63,45,30.49,30.42,30.37,10,10,10,13,7,16,0.00,0,,5
2013-2-21,26,18,9,21,15,6,96,78,60,30.40,30.13,29.90,10,6,0,26,14,33,0.27,5,Fog-Snow,76
2013-2-22,29,22,15,25,21,12,96,85,74,29.96,29.85,29.79,10,4,0,15,8,22,0.18,8,Fog-Snow,8
2013-2-23,25,13,1,16,11,-2,92,80,68,30.01,29.97,29.90,10,9,5,13,6,16,0.00,2,,254
2013-2-24,31,15,-1,22,9,-4,100,82,63,30.13,30.07,29.97,8,5,1,10,4,12,0.00,2,,79
2013-2-25,36,28,19,28,23,17,92,81,70,30.14,30.08,29.96,7,4,3,9,4,10,0.00,4,,71
2013-2-26,34,31,27,29,27,23,92,82,72,29.96,29.78,29.69,10,2,0,23,14,28,0.41,7,Fog-Snow,18
2013-2-27,32,30,28,29,27,25,92,85,78,29.94,29.79,29.72,10,3,0,21,14,24,0.20,8,Fog-Snow,338
2013-2-28,32,29,26,26,23,21,85,79,72,30.16,30.08,29.94,10,10,10,20,13,23,0.00,8,,337